CZ-6A DEB, 54442

Orbit data source: Space-Track

CZ-6A DEB, 54442 is space debris in SSO originally from a launch on Fri, 11 Nov 2022 UTC launched from the Taiyaun Space Center, China (TSC). Debris objects in space refer to the collection of defunct objects orbiting the Earth. Examples of debris include non-operational satellites, rocket bodies, and fragments generated from explosions, collisions, or faulty payload assembly.

Loading next visibility...
Identifier
54442, 2022-151FS
Orbit
SSO
Country
Flag of CNCN / PRC
Related business
Manufacturer
SAST
Mission
Spacecraft
Bus & Motor
Unknown
Mass
Unknown
Launch date (UTC)
2022-11-11 (3 years ago)
Launch vehicle
Unknown
Launch site
Taiyaun Space Center, China (TSC)
Object type
Payload
Rocket body
Debris
Shape & HBR
Unknown shape, 0.5 m
Radar Cross Section
Medium (>0.1 m² and <1 m²)

Expand to show TLE details & history
Last TLE update: 9 hours ago

TLE from 9 hours ago
0 CZ-6A DEB
1 54442U 22151FS  25352.20204007  .00000115  00000-0  10161-3 0  9991
2 54442  98.8405 328.0897 0111680 202.4988 157.1259 13.99916752158053
Epoch: 2025-12-18T04:50Z
TLE epoch observation values (Epoch: 2025-12-18T04:50:56.262Z)
Latitude
0.00002°
Longitude
168.29434°
Altitude
971.945 km
Speed
7.328 km/s
True Right ascension
21h 52m 21s
True Declination
0° 00' 00"
Sunlit
Object was in daylight at epoch
Visualization orbit readout
Latitude
Unknown
Longitude
Unknown
Altitude
Unknown
Speed
Unknown
Apparent Right ascension
Unknown
Apparent Declination
Unknown
Sunlit
N/A
Visualization observer readout
Local Sidereal Time
13:04:09
Azimuth
Unknown
Elevation
Unknown
Doppler factor
Unknown
Orbital elements
Apogee altitude
972.459 km
Perigee altitude
810.09 km
Semi-major axis
7,269.412 km
Eccentricity
0.01117
Inclination
98.8405°
RAAN
328.0897°
Arg. of periapsis
202.4988°
True anomaly
157.61703°
Mean anomaly
157.1259°
Eccentric anomaly
157.37209°
Mean motion
3.50182 °/min
Orbital period
102.8 mins
BSTAR
0.00010161
Loading maneuver chart data...
Computing Atmospheric mass density...
Loading historical data...
Loading historical data...
Loading historical data...
Loading historical data...
Loading historical data...
Loading historical data...
Loading historical data...

Documentation

Showing up to 5 results
|